Location: Battery Park City
(40.7115°N, 74.0163°W)
Time: 10:45:54
(UTC+00:00)

SL-8 R/B - Pass Details

Date: 08 December 2019
Orbit: 657 x 667 km, 48.4° (Epoch: 23 January)

Event Time Altitude Azimuth Distance (km) Brightness Sun altitude
Rises 21:49:48 0° 299° (WNW) 2,998 7.6 -4.4°
Reaches altitude 10° 21:52:09 10° 298° (WNW) 2,085 6.8 -4.8°
Maximum altitude 21:56:57 75° 214° (SSW) 690 4.0 -5.6°
Drops below altitude 10° 22:01:45 10° 129° (SE) 2,081 6.0 -6.4°
Sets 22:04:06 0° 127° (SE) 2,992 6.8 -6.8°
